Weather reports worldwide

Advertisment
Leconfield, United Kingdom (3382): temperature & dewpoint: 16.11.2017 05:00:00 - 22.11.2017 05:00:00 (GMT)Leconfield, United Kingdom (3382): wind speed & gusts: 16.11.2017 05:00:00 - 22.11.2017 05:00:00 (GMT)Leconfield, United Kingdom (3382): wind direction: 16.11.2017 05:00:00 - 22.11.2017 05:00:00 (GMT)Leconfield, United Kingdom (3382): reduced air pressure: 16.11.2017 05:00:00 - 22.11.2017 05:00:00 (GMT)Leconfield, United Kingdom (3382): visibility: 16.11.2017 05:00:00 - 22.11.2017 05:00:00 (GMT)Leconfield, United Kingdom (3382): sunshine duration: 16.11.2017 05:00:00 - 22.11.2017 05:00:00 (GMT)Leconfield, United Kingdom (3382): precipitation: 16.11.2017 05:00:00 - 22.11.2017 05:00:00 (GMT)
Date & Time tt [°C] td [°C] ff [km/h] ff [kn] fx [km/h] fx [kn] dd ppp [hPa] vv [km] sd [min] rr [mm]
22.11.2017 05:00:00 13,1 12,0 16 9 - - SSW 994,2 8 0 0,4
22.11.2017 04:00:00 13,2 11,4 18 10 - - SW 994,7 10 0 0,0
22.11.2017 03:00:00 13,4 11,5 24 13 - - SW 994,7 10 0 0,0
22.11.2017 02:00:00 13,4 11,6 29 16 48 26 SW 994,8 10 0 0,0
22.11.2017 01:00:00 13,4 11,4 28 15 - - SW 995,2 10 0 0,0
22.11.2017 00:00:00 13,2 11,2 28 15 - - SW 996,4 10 - 0,0
21.11.2017 23:00:00 13,2 11,4 21 11 - - SW 996,9 10 0 -
21.11.2017 22:00:00 12,8 11,3 22 12 - - SW 997,2 10 0 0,0
21.11.2017 21:00:00 12,4 11,1 28 15 48 26 SW 997,4 10 0 0,0
21.11.2017 20:00:00 11,8 10,7 21 11 - - SSW 998,2 10 0 0,0
21.11.2017 19:00:00 11,3 10,2 21 11 - - S 998,8 9 0 0,0
21.11.2017 18:00:00 11,3 9,7 18 10 - - S 1000,2 10 0 0,2
21.11.2017 17:00:00 11,7 9,1 13 7 - - S 1001,3 10 0 0,0
21.11.2017 16:00:00 12,0 9,5 13 7 - - SSW 1002,1 10 0 0,0
21.11.2017 15:00:00 12,7 10,4 16 9 - - SW 1002,7 10 0 -
21.11.2017 14:00:00 13,1 11,2 22 12 - - SW 1003,4 10 0 0,0
21.11.2017 13:00:00 13,3 11,7 16 9 - - SW 1004,2 10 0 0,0
21.11.2017 12:00:00 12,9 11,5 16 9 - - SW 1005,0 10 0 0,0
21.11.2017 11:00:00 12,9 11,9 16 9 - - WSW 1005,3 10 0 0,0
21.11.2017 10:00:00 12,7 11,7 18 10 - - SW 1005,7 10 0 -
21.11.2017 09:00:00 12,1 11,7 11 6 - - WSW 1005,9 10 0 0,2
21.11.2017 08:00:00 11,6 11,5 9 5 - - SW 1005,9 3,8 0 0,0
21.11.2017 07:00:00 10,5 10,3 5 3 - - S 1005,9 3,9 0 0,6
21.11.2017 06:00:00 10,2 10,0 5 3 - - SSE 1006,1 2,0 0 1,0
21.11.2017 05:00:00 10,2 9,9 2 1 - - SE 1006,7 2,7 0 0,4
21.11.2017 04:00:00 10,3 9,9 8 4 - - SW 1007,3 2,5 0 0,6
21.11.2017 03:00:00 10,3 9,9 9 5 - - SW 1007,3 6 0 0,4
21.11.2017 02:00:00 10,5 9,8 8 4 - - SW 1008,1 9 0 0,8
21.11.2017 01:00:00 10,7 10,1 8 4 - - SW 1008,4 10 0 0,4
21.11.2017 00:00:00 10,8 9,8 11 6 - - WSW 1008,7 10 - 0,2
20.11.2017 23:00:00 10,6 9,5 9 5 - - WSW 1008,5 10 0 0,0
20.11.2017 22:00:00 10,8 9,5 15 8 - - WSW 1008,7 10 0 0,0
20.11.2017 21:00:00 10,2 9,2 9 5 - - WSW 1008,7 10 0 0,0
20.11.2017 20:00:00 10,3 8,8 13 7 - - W 1008,3 10 0 0,0
20.11.2017 19:00:00 10,1 8,9 11 6 - - WSW 1008,4 10 0 0,0
20.11.2017 18:00:00 10,6 9,3 13 7 - - W 1008,0 10 0 0,0
20.11.2017 17:00:00 11,2 9,7 21 11 - - W 1007,5 10 0 0,0
20.11.2017 16:00:00 11,6 10,2 18 10 - - W 1006,9 10 0 -
20.11.2017 15:00:00 11,9 10,7 22 12 - - W 1007,1 8 0 0,4
20.11.2017 14:00:00 12,1 11,1 15 8 - - WSW 1007,1 10 0 0,0
20.11.2017 13:00:00 11,2 10,7 15 8 - - SW 1007,3 10 0 0,2
20.11.2017 12:00:00 11,0 10,4 13 7 - - SW 1007,7 10 0 0,0
20.11.2017 11:00:00 10,2 9,7 16 9 - - SW 1008,5 10 0 0,0
20.11.2017 10:00:00 9,7 8,9 24 13 - - SW 1008,7 10 0 0,0
20.11.2017 09:00:00 8,9 8,1 22 12 - - SW 1009,0 10 0 0,0
20.11.2017 08:00:00 8,2 7,6 18 10 - - SW 1009,6 6 0 0,2
20.11.2017 07:00:00 7,5 7,0 16 9 - - SSW 1010,0 5 0 0,0
20.11.2017 06:00:00 6,9 6,4 11 6 - - S 1011,3 5 0 -
20.11.2017 05:00:00 6,3 5,8 15 8 - - SSW 1012,5 5 0 0,0
20.11.2017 04:00:00 5,4 5,1 9 5 - - SSW 1013,8 5 0 1,2
20.11.2017 03:00:00 4,6 4,1 4 2 - - SE 1015,1 2,8 0 2,4
20.11.2017 02:00:00 4,4 3,5 5 3 - - S 1016,4 6 0 1,4
20.11.2017 01:00:00 4,7 2,4 5 3 - - S 1017,0 10 0 0,0
20.11.2017 00:00:00 5,2 1,8 8 4 - - S 1018,5 10 - 0,0
19.11.2017 23:00:00 4,7 1,4 5 3 - - SSW 1019,6 10 0 0,0
19.11.2017 22:00:00 5,1 1,0 11 6 - - SW 1020,5 10 0 0,0
19.11.2017 21:00:00 4,4 0,6 5 3 - - SW 1021,1 10 0 0,0
19.11.2017 20:00:00 4,2 0,0 9 5 - - SW 1021,2 10 0 0,0
19.11.2017 19:00:00 3,0 0,8 2 1 - - SSW 1021,5 10 0 0,0
19.11.2017 18:00:00 3,7 0,8 5 3 - - WSW 1021,6 10 0 0,0
19.11.2017 17:00:00 4,0 0,5 8 4 - - WSW 1021,6 10 0 0,0
19.11.2017 16:00:00 4,2 0,4 8 4 - - WSW 1022,0 10 0 0,0
19.11.2017 15:00:00 4,4 0,8 5 3 - - WSW 1022,1 10 0 0,0
19.11.2017 14:00:00 5,1 0,5 9 5 - - W 1022,3 10 24 0,0
19.11.2017 13:00:00 5,5 0,5 13 7 - - W 1022,2 10 60 0,0
19.11.2017 12:00:00 4,8 0,3 13 7 - - W 1022,5 10 60 0,0
19.11.2017 11:00:00 4,2 -0,1 8 4 - - W 1022,3 10 60 0,0
19.11.2017 10:00:00 4,0 -0,5 11 6 - - W 1022,2 10 60 0,0
19.11.2017 09:00:00 2,4 -1,3 11 6 - - WNW 1022,1 10 48 0,0
19.11.2017 08:00:00 2,0 -1,6 13 7 - - WNW 1021,4 10 0 -
19.11.2017 07:00:00 1,5 -1,8 11 6 - - W 1021,1 10 0 0,0
19.11.2017 06:00:00 1,1 -1,6 13 7 - - W 1020,8 10 0 0,0
19.11.2017 05:00:00 1,3 -1,8 11 6 - - W 1020,7 10 0 0,0
19.11.2017 04:00:00 1,7 -1,4 11 6 - - W 1020,5 10 0 0,0
19.11.2017 03:00:00 1,1 -1,6 5 3 - - W 1020,2 10 0 0,0
19.11.2017 02:00:00 2,1 -0,9 8 4 - - W 1020,0 10 0 0,0
19.11.2017 01:00:00 1,8 -0,6 11 6 - - W 1019,7 10 0 0,0
19.11.2017 00:00:00 3,1 -0,1 13 7 - - W 1019,3 10 - 0,0
18.11.2017 23:00:00 2,6 0,3 15 8 - - W 1019,0 10 0 0,0
18.11.2017 22:00:00 3,8 0,7 15 8 - - W 1019,0 10 0 0,0
18.11.2017 21:00:00 4,4 1,0 13 7 - - W 1019,1 10 0 0,0
18.11.2017 20:00:00 4,7 0,8 13 7 - - WNW 1018,9 10 0 0,0
18.11.2017 19:00:00 4,8 1,0 11 6 - - WNW 1018,4 10 0 0,0
18.11.2017 18:00:00 5,0 0,5 9 5 - - W 1018,4 10 0 0,0
18.11.2017 17:00:00 5,6 0,2 11 6 - - W 1018,4 10 0 0,0
18.11.2017 16:00:00 7,1 0,2 16 9 - - WNW 1018,2 10 18 0,0
18.11.2017 15:00:00 7,9 1,2 5 3 - - WNW 1018,1 10 48 0,0
18.11.2017 14:00:00 8,4 1,3 24 13 - - WNW 1018,0 10 48 0,0
18.11.2017 13:00:00 8,7 1,4 26 14 - - WNW 1018,2 10 60 0,0
18.11.2017 12:00:00 8,9 3,8 18 10 - - W 1018,2 10 30 0,0
18.11.2017 11:00:00 7,7 5,3 15 8 - - W 1018,6 10 6 0,6
18.11.2017 10:00:00 7,2 4,2 15 8 - - NNW 1019,0 10 12 0,2
18.11.2017 09:00:00 7,2 4,9 15 8 - - W 1018,8 10 0 0,2
18.11.2017 08:00:00 7,1 4,3 16 9 - - W 1018,4 10 0 0,0
18.11.2017 07:00:00 6,6 4,0 18 10 - - W 1018,0 10 0 0,0
18.11.2017 06:00:00 6,4 3,9 18 10 - - W 1018,1 10 0 0,0
18.11.2017 05:00:00 6,4 4,3 9 5 - - WSW 1018,5 10 0 0,0
18.11.2017 04:00:00 5,6 3,4 22 12 - - WSW 1018,7 10 0 0,0
18.11.2017 03:00:00 5,2 3,1 21 11 - - WSW 1019,1 10 0 0,0
18.11.2017 02:00:00 5,1 3,0 15 8 - - SW 1020,3 10 0 0,0
18.11.2017 01:00:00 4,0 2,2 15 8 - - SW 1020,8 10 0 0,0
18.11.2017 00:00:00 4,2 2,1 13 7 - - SW 1021,3 10 - 0,0
17.11.2017 23:00:00 4,4 2,1 16 9 - - SSW 1022,1 10 0 0,0
17.11.2017 22:00:00 3,9 1,7 8 4 - - SSW 1022,6 10 0 0,0
17.11.2017 21:00:00 4,0 1,7 11 6 - - S 1023,1 10 0 0,0
17.11.2017 20:00:00 4,4 2,0 11 6 - - SW 1023,5 10 0 0,0
17.11.2017 19:00:00 3,7 1,6 9 5 - - SSW 1023,9 10 0 0,0
17.11.2017 18:00:00 5,4 2,7 15 8 - - SW 1024,3 10 0 0,0
17.11.2017 17:00:00 6,1 3,2 13 7 - - WSW 1024,9 10 0 0,0
17.11.2017 16:00:00 6,5 3,5 11 6 - - WSW 1025,2 10 0 0,0
17.11.2017 15:00:00 7,4 3,8 11 6 - - WSW 1025,2 10 0 0,0
17.11.2017 14:00:00 7,7 3,8 18 10 - - SW 1025,5 10 0 0,0
17.11.2017 13:00:00 7,8 4,0 15 8 - - WSW 1026,3 10 18 0,0
17.11.2017 12:00:00 7,3 3,7 15 8 - - WSW 1027,0 10 42 0,0
17.11.2017 11:00:00 6,0 3,0 13 7 - - WSW 1027,8 10 60 0,0
17.11.2017 10:00:00 5,2 2,5 13 7 - - WSW 1027,7 10 60 0,0
17.11.2017 09:00:00 3,9 2,0 11 6 - - WSW 1027,8 10 42 0,0
17.11.2017 08:00:00 3,3 1,7 11 6 - - WSW 1027,5 10 0 0,0
17.11.2017 07:00:00 2,7 1,5 8 4 - - WSW 1027,2 10 0 0,0
17.11.2017 06:00:00 2,9 1,6 11 6 - - W 1027,2 10 0 -
17.11.2017 05:00:00 2,9 1,3 11 6 - - W 1027,2 10 0 0,0
17.11.2017 04:00:00 2,8 1,4 13 7 - - W 1027,2 10 0 0,0
17.11.2017 03:00:00 3,0 1,0 11 6 - - W 1027,3 10 0 0,0
17.11.2017 02:00:00 3,0 1,0 13 7 - - W 1027,4 10 0 0,0
17.11.2017 01:00:00 3,7 1,0 13 7 - - W 1027,2 10 0 0,0
17.11.2017 00:00:00 3,5 0,9 13 7 - - W 1027,2 10 - 0,0
16.11.2017 23:00:00 3,0 0,3 13 7 - - W 1026,7 10 0 0,0
16.11.2017 22:00:00 3,2 0,3 9 5 - - W 1026,3 10 0 0,0
16.11.2017 21:00:00 4,3 0,3 15 8 - - W 1025,8 10 0 0,0
16.11.2017 20:00:00 3,8 -0,2 11 6 - - W 1025,4 10 0 0,0
16.11.2017 19:00:00 3,8 -0,2 8 4 - - W 1024,9 10 0 0,0
16.11.2017 18:00:00 4,6 1,0 9 5 - - SSW 1023,8 10 0 0,0
16.11.2017 17:00:00 5,3 0,3 5 3 - - W 1023,4 10 0 0,0
16.11.2017 16:00:00 8,1 -0,2 15 8 - - WNW 1022,4 10 54 0,0
16.11.2017 15:00:00 9,3 1,8 15 8 - - WNW 1021,3 10 60 0,0
16.11.2017 14:00:00 9,7 1,2 22 12 - - WNW 1020,5 10 42 0,0
16.11.2017 13:00:00 10,3 4,7 18 10 - - WNW 1019,6 10 12 0,0
16.11.2017 12:00:00 10,0 6,2 18 10 - - NW 1018,7 10 0 0,0
16.11.2017 11:00:00 10,8 8,4 22 12 - - SSW 1017,5 10 18 0,0
16.11.2017 10:00:00 10,3 8,3 24 13 - - SSW 1016,9 10 12 0,0
16.11.2017 09:00:00 10,0 8,2 26 14 - - SSW 1017,0 10 24 0,0
16.11.2017 08:00:00 8,7 7,3 16 9 - - SSW 1016,7 10 0 0,0
16.11.2017 07:00:00 8,8 7,4 18 10 - - SW 1016,7 10 0 0,0
16.11.2017 06:00:00 8,7 7,7 9 5 - - S 1017,0 10 0 0,0
16.11.2017 05:00:00 9,0 8,0 11 6 - - SSW 1017,2 9 0 0,0

tt = temperature
td = dewpoint
ff = wind speed
fx = gusts
dd = wind direction
ppp = reduced air pressure
vv = visibility
sd = sunshine duration
rr = precipitation

Next stations